GFSGBSN_925_thetae_069.txt.gz
Theta_e
305 303 303 302 301 301 301 301 301 301 302 302 302 302 303 304 305 307 307 308 309 309 310 311 312 312 317 328 325 328 324 322 332 341 336 337 336 337 337 336 336 336 337 336 336 336 339
305 305 304 303 301 301 301 301 301 301 301 301 302 302 302 303 305 306 307 308 309 310 311 311 312 313 326 323 327 331 337 337 333 332 332 331 332 333 332 333 334 335 335 335 335 336 339
302 303 303 303 302 301 301 301 300 300 300 301 301 302 302 303 304 305 307 308 309 310 311 312 315 316 322 322 323 333 336 334 333 332 330 329 329 329 331 333 333 333 334 336 335 336 337
301 301 303 302 301 301 301 301 300 300 300 300 301 301 302 302 304 305 307 308 309 311 312 316 317 323 324 321 322 329 335 334 333 330 328 326 326 328 329 331 332 332 332 334 335 336 335
301 300 301 302 302 301 301 300 300 300 300 300 300 301 301 302 303 304 307 310 310 312 316 318 324 327 323 319 320 323 329 331 330 327 327 326 326 327 328 328 329 331 333 332 334 335 333
302 301 301 300 299 299 300 300 300 299 299 299 300 301 301 302 303 304 307 311 314 314 324 325 325 324 324 323 323 322 322 325 327 327 326 327 326 327 328 328 328 329 333 334 333 333 333
303 303 302 301 300 299 299 299 299 299 299 299 300 300 301 302 302 304 308 317 323 328 323 323 326 324 324 323 323 324 324 324 326 326 326 327 327 327 328 329 329 329 330 332 333 332 331
304 303 303 303 301 300 299 299 299 299 299 299 300 300 301 302 303 306 312 319 317 315 319 322 323 323 325 324 324 325 325 326 326 326 327 326 326 327 327 328 328 328 328 329 329 330 330
305 304 304 303 303 301 300 299 299 299 299 299 300 300 301 303 305 313 312 317 315 315 320 320 322 323 323 323 323 324 326 326 327 327 327 326 327 327 327 327 327 327 328 329 329 329 330
309 306 304 304 304 302 301 300 299 299 299 300 300 300 301 302 309 310 316 316 313 316 320 320 322 323 324 324 323 324 325 326 327 328 328 327 328 326 326 326 326 327 328 328 327 328 328
310 310 307 305 305 303 302 300 300 300 300 300 300 300 301 302 309 313 312 311 313 318 320 322 322 324 325 323 324 325 325 326 327 328 328 328 327 327 326 325 325 326 327 328 328 328 329
312 311 311 307 306 305 303 302 300 300 300 300 300 300 300 308 311 311 311 311 315 320 320 321 322 322 323 324 325 325 326 326 327 327 329 328 329 328 327 327 325 326 327 328 328 329 329
314 313 312 311 307 306 304 303 301 301 300 300 301 301 301 306 311 310 310 313 319 320 321 322 321 322 322 323 325 326 325 325 325 326 328 328 328 328 327 326 326 326 327 329 330 331 329
318 315 313 312 309 307 305 304 302 303 303 300 301 302 309 310 311 311 312 315 321 322 322 322 321 322 322 323 324 325 326 326 326 327 327 328 329 328 328 327 327 327 327 328 332 332 332
319 318 315 313 311 308 307 305 302 303 305 300 302 308 310 313 313 312 315 316 320 322 323 321 322 320 322 322 324 324 324 325 327 328 328 328 328 329 329 328 327 327 329 328 329 331 331
320 319 317 314 312 309 307 305 303 304 302 300 305 310 313 315 315 314 314 316 319 321 321 321 321 321 322 322 323 324 324 324 324 325 327 327 329 328 328 327 327 327 328 328 328 332 333
320 319 317 315 313 310 308 305 304 303 301 302 309 312 318 316 316 315 313 316 318 319 320 320 321 321 322 323 324 324 325 325 325 325 326 326 328 328 327 326 326 326 327 328 329 330 331
319 318 318 316 314 310 308 306 304 301 299 306 309 313 315 313 317 315 314 315 315 318 319 319 320 320 322 322 323 324 325 326 327 326 325 326 326 328 327 327 327 328 328 328 329 331 330
316 319 318 316 314 311 308 306 304 301 299 303 311 312 316 313 318 318 317 315 316 317 318 319 319 320 320 320 322 323 326 326 327 328 328 326 326 327 328 327 327 327 328 329 329 330 333
315 318 318 316 314 311 309 305 304 301 299 303 311 315 319 318 317 318 319 317 316 316 316 317 318 319 320 320 322 323 325 325 325 329 336 334 328 327 326 328 328 328 326 327 328 332 331
315 317 317 316 315 312 310 306 304 302 299 304 314 316 323 324 319 318 317 319 320 320 319 320 319 318 319 321 321 322 323 324 324 328 329 330 331 329 329 327 329 328 327 326 327 329 330
315 316 317 316 314 312 310 306 304 302 299 309 316 320 322 322 324 324 319 321 323 324 323 323 322 320 321 321 321 322 322 324 326 326 327 331 334 335 331 327 328 327 327 328 328 328 328
315 315 317 316 315 312 310 307 304 303 301 308 309 309 317 320 324 324 322 320 322 322 324 323 323 322 322 323 322 321 323 325 327 328 329 330 333 335 331 328 328 328 327 327 328 328 329
314 314 317 316 315 312 310 307 304 302 299 306 307 306 315 319 322 322 323 321 322 323 324 325 324 327 328 328 325 324 322 325 326 326 327 330 332 333 332 336 342 339 338 332 332 341 341
313 313 316 316 314 312 310 308 304 302 300 305 307 307 314 319 321 321 321 320 322 324 325 325 326 328 328 327 327 325 324 326 326 325 327 326 330 330 330 330 331 340 341 338 335 346 345
313 313 315 315 314 312 310 307 303 302 301 303 306 306 309 317 318 317 318 321 322 322 325 324 326 326 326 328 326 327 327 326 326 326 328 327 331 331 329 330 331 348 343 342 342 346 345
312 314 315 315 314 312 310 308 304 302 301 302 306 306 308 314 316 316 318 319 319 321 324 325 326 325 324 328 326 328 327 329 327 328 330 328 329 326 326 327 328 340 339 341 341 348 342
312 314 315 315 313 312 310 307 304 302 301 302 306 305 306 312 314 314 315 316 317 320 322 325 325 326 323 328 328 328 329 329 328 330 331 330 331 329 328 329 329 338 337 347 344 340 339
312 315 314 314 313 312 310 307 304 302 301 300 305 306 307 310 313 311 311 311 313 314 316 321 330 327 329 330 330 329 327 326 328 328 335 330 330 344 345 346 340 337 338 335 333 336 336

GFSGBSN_925_thetae_072.txt.gz
Theta_e
305 304 303 302 302 301 301 301 301 301 301 302 302 302 302 303 305 306 306 308 309 310 310 311 312 312 316 324 328 328 326 325 324 334 338 341 341 338 338 337 335 336 336 337 336 336 336
303 302 302 301 301 301 301 301 301 301 301 302 302 302 302 303 304 305 306 308 309 310 311 311 312 314 325 323 332 328 336 329 332 334 337 337 339 336 335 333 333 333 334 335 336 336 336
300 301 302 302 301 301 301 301 301 300 301 301 302 302 302 303 304 305 306 308 309 310 311 311 313 317 322 322 323 335 337 334 331 331 332 332 334 333 333 333 332 333 333 332 334 336 336
301 300 300 300 299 299 300 300 300 300 300 301 301 302 302 302 303 304 306 309 310 311 311 312 316 323 323 322 323 324 334 335 332 332 331 330 328 328 328 329 330 331 332 331 333 335 336
303 302 301 300 300 299 299 299 299 299 300 300 301 302 302 303 303 304 306 310 312 312 312 314 321 325 327 322 323 323 329 334 333 332 330 329 327 327 328 327 327 328 328 331 333 334 335
304 304 304 303 302 300 300 300 299 299 299 300 300 301 302 303 304 304 307 311 314 314 319 323 325 324 324 325 324 323 325 331 333 331 329 328 327 326 326 327 327 329 329 331 334 334 335
305 304 304 304 303 302 301 300 300 300 300 300 300 301 302 303 304 305 307 316 323 326 323 324 325 323 324 325 324 324 323 324 327 328 328 327 327 327 327 328 329 329 329 329 331 333 333
308 306 305 305 305 304 302 300 300 300 300 300 300 301 302 303 305 306 310 320 320 317 318 320 322 325 325 325 324 325 325 324 325 326 327 327 327 327 328 328 328 329 329 330 330 330 330
311 310 308 306 306 306 303 302 301 301 300 300 300 300 301 303 306 312 315 316 318 316 317 319 320 321 324 324 325 325 326 326 325 325 327 328 328 328 327 327 327 328 328 328 329 330 330
313 312 312 311 307 308 306 305 305 303 302 301 300 300 301 302 311 312 315 317 315 316 319 320 321 322 322 324 324 325 325 326 326 327 329 329 329 328 327 327 327 327 327 328 328 328 328
315 313 313 313 312 308 307 306 307 306 305 302 301 300 301 302 307 314 315 314 314 316 321 322 324 324 324 323 325 325 325 325 326 327 328 328 329 328 327 327 327 326 327 327 328 328 329
319 317 314 313 313 311 308 307 308 309 307 309 306 302 301 307 311 314 313 313 314 319 321 321 323 323 323 323 324 326 326 326 326 326 328 329 329 329 328 328 327 327 325 326 327 328 329
321 320 317 315 314 313 310 309 308 308 309 308 307 308 302 305 310 311 311 314 317 320 322 322 321 324 323 323 324 324 325 326 326 327 328 328 328 329 329 328 328 327 325 326 329 329 329
321 320 319 317 315 313 312 310 308 309 310 307 303 311 308 310 312 313 314 316 319 321 322 322 322 323 322 323 323 324 325 326 326 325 326 328 327 328 329 328 327 327 326 327 332 330 332
320 321 319 318 315 314 312 310 309 310 311 304 305 312 311 314 315 314 315 317 320 321 322 323 323 323 323 323 323 323 323 326 326 326 329 328 327 328 329 329 328 328 329 328 327 329 329
318 320 320 319 318 314 313 311 309 309 310 302 305 311 314 315 316 314 315 316 318 320 321 322 323 323 323 322 322 323 324 325 326 327 328 328 330 327 328 329 329 328 328 327 329 334 335
316 318 319 319 317 315 313 311 309 308 307 305 310 315 319 317 317 318 317 317 318 319 321 321 322 322 322 322 323 324 325 325 326 325 326 326 330 329 328 330 329 328 328 328 328 330 331
315 315 318 318 317 316 313 310 308 306 304 306 311 314 318 317 318 320 319 318 316 319 320 320 321 321 322 322 323 325 325 327 327 328 325 326 325 328 327 328 329 328 329 328 329 334 333
315 315 316 319 317 316 313 311 307 304 301 303 313 315 313 315 315 319 320 320 318 318 318 319 320 321 322 321 322 323 323 324 327 327 331 332 326 327 328 328 329 327 327 328 332 336 336
316 315 315 318 317 316 314 311 307 304 301 303 311 316 317 320 316 318 319 321 321 319 318 318 319 320 320 321 322 322 322 323 326 326 339 332 330 338 327 330 330 332 327 327 329 335 333
315 315 315 318 317 315 313 311 308 306 302 304 315 316 317 324 323 323 322 320 320 321 322 318 320 319 319 320 321 322 322 323 324 326 325 330 338 333 328 326 327 328 329 328 327 329 330
314 315 315 317 316 315 313 311 308 306 301 307 315 315 318 319 322 324 322 322 320 321 325 325 325 322 322 322 321 322 322 323 325 327 328 332 337 334 332 330 330 328 329 330 329 327 327
312 315 315 317 317 315 314 311 309 307 301 312 312 311 311 315 320 324 325 324 321 323 323 324 325 324 324 322 325 324 322 323 324 329 332 335 338 337 336 333 334 331 329 336 329 330 335
311 313 314 316 317 316 314 311 309 306 301 305 308 310 310 314 318 323 325 324 324 323 324 323 325 324 327 329 327 325 324 322 323 326 332 333 336 338 336 338 335 334 336 343 340 348 351
310 312 313 314 317 316 314 312 309 306 302 304 306 309 311 314 318 321 322 324 322 323 325 325 325 327 327 327 327 327 326 326 324 325 329 331 334 333 334 331 332 338 338 342 348 354 348
310 311 314 314 316 316 314 312 309 305 303 303 306 309 309 311 314 318 319 321 322 321 323 325 326 327 326 327 329 329 326 324 325 325 326 327 332 331 334 333 334 347 335 332 339 357 346
310 311 313 314 315 315 314 312 308 305 302 302 305 308 308 310 312 314 317 318 319 320 321 325 326 327 325 327 333 332 331 330 327 329 333 329 333 330 329 327 328 341 338 339 337 353 343
311 311 313 314 315 314 313 311 308 305 302 303 306 308 308 309 310 311 314 316 318 319 321 322 324 327 327 330 332 333 336 333 332 334 336 337 337 331 332 331 332 340 342 350 347 343 340
311 311 314 314 315 314 313 311 308 305 302 302 306 308 307 309 311 309 309 310 311 314 317 318 327 327 329 327 332 333 337 334 335 336 336 334 334 346 343 346 343 337 338 335 336 337 336

GFSGBSN_925_thetae_075.txt.gz
Theta_e
300 300 301 301 301 301 301 301 302 302 302 302 302 303 303 303 304 305 305 307 309 310 310 310 311 311 314 321 324 326 327 326 325 325 330 332 338 339 340 336 334 331 332 331 332 332 333
300 300 300 300 300 300 301 301 301 301 301 302 302 302 303 304 304 305 306 307 309 310 311 311 311 312 325 321 321 333 325 326 330 332 332 332 339 337 338 333 331 329 329 330 330 331 333
301 301 300 300 300 300 300 300 300 300 301 301 302 302 302 303 304 304 306 308 310 311 311 311 311 314 323 319 320 335 335 333 331 332 330 333 335 332 332 330 330 328 327 328 329 330 331
304 303 303 302 301 300 300 300 300 300 301 301 301 301 302 303 305 305 306 309 312 312 311 311 312 321 323 318 320 321 330 337 334 331 330 331 330 327 325 325 325 325 324 325 328 329 330
304 304 304 304 304 303 302 301 301 300 301 301 301 302 302 303 304 305 306 310 314 312 312 313 316 323 322 324 322 323 323 334 335 332 332 332 329 325 324 323 322 323 323 324 326 328 330
307 307 306 307 307 305 303 302 301 301 301 301 301 302 302 303 305 305 307 312 316 317 320 320 322 323 323 322 325 324 323 327 333 332 331 330 324 324 321 321 322 323 324 324 326 329 331
311 311 310 309 308 310 305 304 303 302 302 302 302 302 302 303 304 305 307 313 318 322 322 323 324 321 321 323 324 324 323 325 327 332 330 328 323 322 322 322 324 325 325 326 328 328 327
312 313 312 312 310 308 309 307 306 307 306 304 303 303 303 304 305 308 311 316 315 318 315 316 317 318 320 321 323 324 324 320 322 325 326 325 324 324 326 326 325 325 325 327 327 328 327
314 313 314 313 312 311 308 308 308 309 310 308 308 308 304 303 306 313 311 313 315 315 313 316 316 318 318 319 320 324 322 322 321 322 323 323 324 326 326 326 325 323 325 326 326 325 325
318 318 315 315 314 314 313 311 313 314 314 311 311 311 312 306 310 307 312 314 314 314 314 318 318 319 318 319 318 321 324 323 323 322 323 323 325 326 327 326 325 323 326 327 326 324 324
321 320 318 317 315 315 315 314 312 314 314 313 313 311 309 307 305 311 312 314 314 314 319 320 320 322 320 318 319 320 322 323 322 323 323 324 326 327 327 327 325 324 325 324 325 322 326
322 322 321 320 318 317 316 315 313 313 314 315 314 312 303 308 307 307 311 312 313 315 320 320 321 320 320 320 319 320 321 323 322 322 323 325 326 326 326 328 326 327 325 323 322 320 323
320 321 320 320 319 318 316 315 315 314 315 315 314 314 305 305 307 308 312 313 315 317 320 320 320 320 322 321 320 320 320 321 321 320 320 322 324 325 327 326 326 326 323 321 322 323 325
319 319 320 320 319 318 317 315 314 313 314 313 310 311 314 313 310 313 313 314 318 319 319 320 320 321 323 322 322 321 321 321 323 321 321 321 323 325 326 326 326 326 323 320 324 328 327
318 319 319 320 319 318 317 315 314 312 313 311 306 309 311 313 313 315 314 315 318 320 320 320 319 321 322 323 322 322 321 321 323 323 323 322 323 326 326 326 326 326 325 323 323 323 324
317 317 318 319 319 318 317 315 314 312 312 309 304 308 314 314 314 315 315 315 316 317 317 318 319 320 322 322 322 323 324 325 325 324 324 323 324 324 326 326 326 325 326 324 322 326 329
315 315 315 317 318 318 317 316 314 310 311 307 308 316 316 317 317 317 317 316 317 317 318 318 319 320 320 322 321 321 324 324 325 326 325 326 324 325 325 325 324 327 326 324 322 324 325
315 315 315 314 317 317 317 316 313 309 308 304 308 315 319 318 318 318 319 320 317 318 317 317 318 319 320 321 321 322 322 323 324 323 324 329 328 325 324 325 327 326 326 325 325 325 328
315 315 315 315 317 318 317 315 313 308 304 301 309 314 315 316 316 314 316 318 319 320 317 317 317 318 319 320 321 323 322 322 323 323 328 327 330 331 326 324 324 325 327 327 326 325 324
314 315 315 315 316 318 317 315 312 308 305 301 308 316 317 317 318 319 318 318 320 320 321 321 318 317 318 318 319 322 322 322 322 322 337 328 329 335 333 331 328 328 329 327 324 327 325
311 314 315 315 316 318 316 314 312 309 306 303 311 318 317 320 317 319 323 324 323 322 320 324 326 321 319 318 320 320 320 321 322 325 327 328 330 335 330 330 329 328 328 328 327 327 332
309 313 315 314 316 316 316 314 312 309 306 306 312 313 312 312 315 318 321 325 325 322 323 325 324 325 325 325 323 323 320 320 322 323 326 333 335 337 337 332 331 332 334 333 337 341 337
309 310 313 315 316 316 316 314 312 309 305 309 311 311 312 312 313 316 321 326 326 325 323 323 323 323 325 326 326 326 324 323 321 321 331 335 332 334 338 335 333 334 350 349 350 343 350
308 310 312 314 315 316 315 315 312 310 305 305 306 308 312 311 312 315 319 323 324 325 324 324 324 326 326 326 326 327 326 325 325 324 330 334 333 333 337 339 339 336 337 346 345 346 344
307 310 312 313 314 316 316 315 312 310 306 303 305 307 312 311 311 313 318 319 319 322 324 323 326 326 324 326 328 330 328 327 326 325 331 327 330 328 336 333 333 346 337 340 343 337 343
307 309 311 312 313 315 316 315 313 310 306 303 304 306 311 311 310 311 311 315 319 319 320 321 322 322 324 326 328 332 333 333 330 325 326 327 326 327 332 336 338 346 334 335 333 345 341
307 309 310 312 313 314 316 315 312 310 306 303 304 306 308 310 310 310 310 312 314 317 319 323 318 322 325 330 333 334 332 332 337 335 340 337 334 331 331 333 346 341 333 334 340 346 345
307 310 311 312 313 315 315 314 312 310 306 303 305 306 308 310 309 309 310 312 314 316 319 318 320 327 330 334 334 334 336 334 336 335 334 337 337 339 339 337 342 339 339 348 343 339 340
308 311 311 312 313 314 315 314 312 310 306 303 305 308 308 311 309 308 307 307 308 309 311 315 323 329 329 332 332 333 333 334 333 337 330 338 338 339 338 341 338 335 337 336 335 336 336

GFSGBSN_925_thetae_078.txt.gz
Theta_e
300 300 300 300 300 300 301 301 301 301 301 302 302 302 303 305 305 305 306 307 309 310 310 310 310 310 313 316 319 319 320 326 325 325 329 328 331 336 339 338 335 331 329 327 326 326 328
302 302 301 301 301 300 301 301 301 302 302 302 302 302 303 304 305 306 307 308 308 310 311 310 310 310 322 320 318 320 327 325 326 326 331 329 333 337 336 335 330 329 325 325 325 326 327
304 304 304 304 303 302 302 301 301 301 302 303 303 303 304 304 305 306 307 308 309 310 311 311 310 311 322 314 318 325 330 331 328 331 329 330 330 334 330 330 328 323 323 324 325 325 326
306 306 306 307 306 305 303 302 302 302 302 302 303 303 303 304 305 305 307 309 310 311 312 312 311 318 317 315 317 318 319 334 333 332 331 330 330 327 326 324 321 322 322 322 324 324 325
310 310 310 310 310 310 308 305 305 306 306 306 306 306 305 305 305 305 307 310 313 315 316 314 315 320 317 319 323 323 321 322 328 334 331 330 329 325 323 321 319 318 321 321 323 325 324
312 312 312 311 311 309 310 311 309 308 310 311 310 310 311 309 306 305 308 314 318 319 320 321 321 317 316 318 321 322 323 322 332 332 331 331 325 322 319 317 321 320 320 321 322 325 324
314 314 315 315 315 316 315 315 316 316 314 315 312 313 315 316 311 307 311 315 311 313 314 315 316 319 319 320 320 321 321 321 328 331 331 329 326 323 321 320 321 321 321 321 322 324 325
319 319 319 316 316 316 316 315 313 315 316 315 314 314 315 316 315 308 307 312 314 313 310 312 314 315 315 316 316 317 320 318 322 325 327 327 326 327 323 323 323 323 322 322 323 324 324
321 319 318 317 317 315 316 316 316 317 316 316 316 316 316 316 313 310 306 311 313 312 309 311 313 314 314 315 316 317 319 319 318 321 323 326 328 326 324 324 324 323 321 322 323 324 322
320 321 321 319 319 318 318 318 318 318 317 317 316 316 315 314 311 311 309 311 312 312 309 313 315 315 315 316 316 318 318 319 319 319 320 320 322 323 323 324 323 321 323 322 324 323 322
321 320 320 321 320 319 318 317 317 317 317 317 316 314 313 308 308 308 308 309 311 311 315 319 318 319 315 316 318 318 319 317 318 319 318 319 321 321 323 323 324 324 324 323 323 321 320
319 319 319 321 319 320 319 318 318 318 317 316 315 314 309 309 307 313 308 310 311 312 316 319 319 318 317 318 317 318 318 316 318 319 319 320 321 322 322 324 325 324 323 320 318 315 318
317 317 319 319 320 319 319 318 318 317 316 316 315 315 310 306 311 312 312 309 310 313 315 317 317 317 317 318 320 319 317 316 316 318 318 319 319 321 323 323 323 324 318 319 320 319 320
315 318 318 318 317 318 318 317 317 316 316 315 313 314 312 310 312 311 312 308 314 315 316 317 317 316 318 318 320 321 317 316 315 316 317 319 320 319 321 321 322 322 318 319 321 320 321
315 315 318 318 317 317 317 317 317 316 315 313 312 311 309 312 312 311 307 310 312 316 317 316 315 316 317 318 319 319 320 321 318 318 317 318 318 320 320 321 321 322 323 319 318 320 320
315 315 315 315 315 317 316 317 316 315 314 312 305 307 311 313 311 312 308 311 312 314 314 315 315 316 317 317 317 317 319 321 323 323 323 324 323 320 322 322 323 322 322 322 317 323 323
315 315 315 315 315 315 316 317 316 314 313 309 306 307 314 314 313 308 311 310 313 315 315 315 315 314 315 316 318 317 319 320 320 322 322 324 323 324 325 323 323 322 324 322 319 319 322
315 315 315 315 314 315 316 317 315 313 310 307 304 309 314 314 312 309 313 316 316 317 316 317 314 314 316 316 317 318 319 320 320 321 324 325 323 323 324 325 324 323 323 322 325 322 322
314 314 315 315 315 315 317 317 314 311 307 302 301 305 314 314 310 308 308 312 317 318 318 318 316 318 315 316 316 317 319 318 319 322 323 323 324 324 330 324 324 323 322 322 320 319 325
313 311 314 315 315 315 317 316 314 311 308 303 301 307 308 307 308 315 316 318 321 322 320 321 322 320 320 316 316 316 317 319 319 321 341 326 323 327 329 330 327 328 327 327 323 324 323
308 309 311 314 315 315 317 316 314 311 308 303 303 310 308 308 308 308 312 316 320 323 320 319 320 321 321 322 320 320 320 322 323 322 322 321 325 329 329 331 330 331 330 338 330 332 326
304 306 309 314 314 315 315 315 313 311 308 305 306 307 306 307 306 308 312 318 320 324 322 320 321 322 319 322 325 326 324 323 319 319 321 324 324 330 332 333 347 353 348 345 344 344 345
304 305 309 311 314 314 315 315 314 311 307 306 308 307 305 307 306 308 310 312 317 316 321 321 321 322 323 323 324 324 323 319 320 321 321 328 326 327 329 332 334 349 350 347 347 345 344
302 303 308 311 313 314 315 314 314 311 308 304 305 305 306 308 307 308 309 311 312 316 319 321 323 324 323 322 322 323 322 322 321 320 319 326 328 328 329 329 340 341 340 341 342 341 345
302 305 306 310 312 313 315 315 315 311 308 306 305 304 304 307 308 309 309 308 309 312 315 319 320 321 319 322 323 325 326 324 323 322 320 323 324 325 329 333 341 341 339 339 343 342 342
302 305 304 310 311 312 314 315 314 312 309 306 305 304 304 307 307 308 308 307 309 309 314 316 315 313 319 320 323 330 329 330 330 330 324 324 320 323 328 332 334 342 336 334 335 345 341
302 306 306 309 311 312 313 315 314 312 309 306 304 305 305 305 305 306 306 306 306 311 312 314 313 319 324 327 331 331 333 330 336 334 330 331 329 328 330 330 344 337 334 334 334 335 336
301 306 306 310 311 312 314 315 315 312 309 306 306 306 305 304 305 307 307 307 306 307 312 311 313 320 327 327 325 328 329 330 329 331 330 332 334 333 332 336 342 336 337 344 338 338 333
300 306 307 311 311 312 314 315 314 312 309 305 304 306 305 306 306 309 309 308 308 307 305 305 310 325 322 326 327 330 329 328 328 333 328 330 333 335 331 334 334 331 335 334 332 334 334

GFSGBSN_925_thetae_084.txt.gz
Theta_e
306 308 310 312 312 311 310 310 310 311 312 314 315 317 316 317 317 317 315 310 309 309 311 311 311 312 311 311 312 317 317 323 324 327 326 324 323 327 332 334 336 335 334 326 323 321 322
311 313 314 315 315 316 316 316 316 317 317 317 317 317 317 317 317 317 317 316 309 311 314 314 314 312 316 310 316 316 324 325 325 327 327 324 323 324 328 335 333 331 329 324 320 322 324
314 315 316 316 317 318 318 319 318 317 317 318 318 318 317 318 318 317 317 313 311 314 316 316 315 311 316 310 316 320 323 323 319 323 325 326 326 329 330 331 326 325 321 320 322 323 322
315 316 317 317 317 318 318 319 319 318 318 318 318 318 317 317 317 317 316 310 312 317 317 316 314 316 308 314 314 314 315 318 319 320 328 327 328 323 328 325 318 319 318 321 321 321 322
318 318 318 318 319 319 319 318 318 318 319 318 318 318 318 318 317 317 311 311 313 315 317 315 317 313 310 315 317 319 319 319 320 325 329 330 326 325 324 320 320 317 321 320 319 320 322
320 320 321 320 319 319 319 319 319 319 319 319 318 317 317 317 316 316 313 312 313 319 313 317 321 315 316 315 315 317 317 318 317 323 328 329 324 323 316 320 328 322 320 318 319 321 319
320 319 319 319 319 319 320 319 319 319 318 318 317 317 316 316 316 314 313 312 306 308 309 310 310 313 312 314 315 316 317 315 317 327 328 328 326 325 327 321 321 321 319 320 319 320 321
319 319 319 319 318 318 319 319 319 319 318 318 317 316 316 316 316 312 311 306 307 307 307 308 308 309 311 312 313 313 316 315 322 322 326 326 327 327 328 322 322 321 320 320 319 320 321
319 318 318 318 317 317 317 319 318 318 318 318 317 316 315 316 315 313 310 308 309 308 307 309 309 310 311 311 312 313 314 315 317 320 325 322 324 327 328 326 325 322 321 321 320 320 319
318 317 317 317 316 316 317 316 317 318 317 317 317 316 314 315 314 312 312 309 310 308 307 311 314 315 314 313 314 314 314 315 315 315 316 320 324 326 326 326 324 325 322 322 321 320 320
317 317 316 317 316 316 317 316 316 317 317 317 317 316 314 312 310 309 314 311 311 306 311 313 315 316 312 314 316 318 316 314 315 315 315 316 318 320 323 323 321 323 321 321 321 319 318
317 316 315 315 316 316 315 315 315 316 317 317 316 315 314 310 308 313 312 311 308 310 311 314 314 313 312 314 315 316 316 314 314 314 315 315 316 317 318 319 319 321 321 317 312 312 317
315 315 315 314 314 315 315 315 315 316 317 316 316 315 310 307 310 311 311 306 309 311 312 315 314 312 311 313 314 316 316 315 313 314 314 314 315 316 318 318 318 320 316 318 319 319 321
315 315 315 315 314 314 314 315 314 315 317 315 315 313 309 309 309 310 308 307 313 313 313 313 313 311 314 313 314 314 315 316 316 313 312 313 315 316 317 317 317 317 315 317 320 319 319
315 315 314 315 315 314 314 314 314 314 315 314 314 310 310 311 310 310 305 310 312 312 313 313 312 314 313 314 314 313 314 316 317 317 318 314 316 316 317 317 317 317 318 316 317 314 317
314 314 314 314 314 315 314 314 314 315 315 313 309 307 310 311 312 308 304 309 310 309 312 313 315 314 314 314 314 313 314 316 316 318 315 318 322 320 321 318 318 317 317 319 318 328 325
313 313 313 314 314 314 315 314 314 315 314 313 306 306 310 311 311 307 308 308 310 311 312 314 314 314 314 314 313 314 315 316 316 318 317 319 319 322 322 322 321 321 318 318 320 319 323
313 313 313 312 312 314 314 314 315 315 314 312 301 310 310 311 310 303 311 312 313 314 316 316 314 313 314 313 313 314 315 316 317 322 319 320 316 321 323 322 321 320 320 318 322 322 319
314 313 313 312 310 314 314 314 314 314 312 306 300 300 309 310 311 307 308 312 312 317 318 319 318 320 318 317 320 317 318 320 321 324 320 321 316 322 323 324 325 327 325 318 318 318 322
315 314 312 307 308 312 314 313 313 314 312 305 301 308 304 301 301 308 308 310 315 315 318 319 318 318 319 319 318 317 324 323 324 324 334 321 320 324 323 325 326 331 329 331 317 318 319
314 313 308 304 306 311 314 313 313 314 312 304 300 307 303 307 307 306 307 309 314 314 313 317 319 319 319 321 322 324 323 322 323 324 321 318 319 322 324 324 329 333 344 345 333 321 323
314 313 307 305 306 310 313 313 313 314 311 306 306 306 302 305 303 306 306 310 311 311 311 319 320 319 319 321 322 323 323 322 323 321 321 316 321 327 326 326 329 339 334 335 346 347 352
314 313 306 303 302 307 312 313 313 314 311 304 303 303 303 306 304 306 306 309 310 308 311 314 318 319 318 320 318 318 317 318 320 321 320 316 318 319 323 324 330 341 343 342 344 342 344
314 313 306 303 303 308 311 313 313 313 311 307 304 302 303 309 305 306 308 309 308 308 309 310 311 316 316 312 314 315 314 316 318 319 316 318 319 319 321 326 330 337 337 340 343 343 343
314 312 305 302 305 307 310 313 313 313 312 309 305 302 302 306 305 307 308 307 305 305 307 311 313 314 309 315 320 323 323 324 325 324 323 317 317 321 322 329 330 343 335 334 338 343 341
314 310 303 302 306 304 310 312 313 313 313 310 308 304 302 305 307 308 307 307 305 304 307 308 310 307 319 321 325 330 329 329 331 330 324 325 320 320 326 330 335 337 336 333 335 343 340
313 310 302 303 306 305 310 311 312 314 313 311 306 304 303 304 302 304 306 306 304 304 304 304 307 306 317 319 324 326 330 327 332 331 328 326 327 328 332 333 337 338 335 334 338 333 337
314 309 301 302 306 306 310 310 311 314 313 311 307 306 304 301 301 304 305 305 304 304 306 304 305 309 315 322 323 322 326 325 325 325 329 326 330 329 328 334 334 331 336 339 334 333 332
313 308 300 302 306 305 308 311 312 314 314 310 307 304 304 302 302 305 306 307 307 306 304 302 304 306 304 320 318 321 326 324 322 325 324 328 327 330 327 331 329 328 331 330 330 334 333

GFSGBSN_925_thetae_087.txt.gz
Theta_e
314 315 316 317 318 318 319 319 319 318 318 318 319 319 318 318 317 317 317 317 314 310 312 314 314 314 313 314 315 316 317 324 327 329 328 326 325 325 327 331 336 338 337 337 336 326 325
315 316 318 318 318 319 319 319 319 319 319 318 318 318 318 318 318 317 317 316 310 311 314 316 315 314 316 317 315 315 326 326 327 329 327 325 326 325 326 328 333 334 333 333 327 325 325
318 318 319 320 320 320 319 319 319 318 319 319 319 318 317 318 318 317 316 312 312 312 316 317 316 313 316 318 317 322 327 321 321 325 325 326 326 327 332 333 331 329 329 330 328 328 327
320 320 321 320 320 320 319 319 319 319 319 318 318 318 317 317 317 316 315 313 312 314 316 314 314 315 317 315 314 315 315 317 319 321 321 325 326 328 327 328 325 325 323 329 328 324 325
321 320 319 319 319 319 319 319 319 318 318 318 318 317 317 316 316 316 315 312 312 316 315 319 317 313 316 316 317 318 318 318 318 325 328 329 328 329 327 327 330 327 330 327 327 323 323
320 320 319 318 318 318 318 318 319 318 318 318 318 317 316 316 316 315 313 312 312 314 312 314 319 318 318 317 315 315 316 317 319 320 329 328 330 330 328 331 328 329 327 324 326 326 325
320 319 318 318 317 317 317 317 318 318 318 318 318 317 317 316 315 313 311 310 311 313 310 313 313 313 314 314 313 315 316 316 317 323 321 328 326 327 330 330 329 328 328 328 327 325 324
320 319 318 317 318 316 316 316 316 317 317 318 317 317 317 315 315 313 310 309 307 307 312 310 310 311 311 312 314 317 314 316 321 321 327 326 326 328 330 331 330 330 331 330 329 324 326
318 317 317 317 316 317 315 315 316 316 316 317 317 317 316 315 314 313 308 307 309 307 312 313 312 312 314 313 315 316 316 317 319 322 322 321 322 326 330 330 331 332 333 332 331 329 325
317 317 317 315 314 316 315 315 315 315 315 316 317 316 314 314 312 312 312 307 310 308 314 315 317 316 316 314 317 316 315 318 318 320 321 322 323 324 327 327 331 331 330 331 330 330 332
318 317 315 314 313 314 315 315 314 314 315 316 316 315 313 312 310 311 311 311 309 307 316 316 317 316 315 317 317 320 316 316 319 319 319 321 321 325 325 326 326 324 325 325 325 328 325
317 316 315 314 314 314 314 314 314 315 314 316 315 314 312 310 308 311 311 310 306 315 315 317 316 316 317 316 317 317 318 317 316 317 317 318 318 319 323 325 325 324 324 323 321 323 324
316 315 315 315 315 314 314 314 314 313 314 315 315 314 310 308 311 309 310 309 315 314 315 317 316 317 315 317 317 317 318 321 319 320 321 320 319 318 319 320 321 323 323 323 324 325 326
315 315 314 314 314 314 314 314 314 313 315 315 314 312 309 309 309 309 307 315 316 315 316 315 316 316 316 316 317 317 319 320 319 321 321 321 322 319 319 320 322 322 323 323 325 325 325
315 314 314 314 314 314 314 314 313 314 315 314 314 310 310 310 310 309 314 318 317 315 315 317 318 318 319 317 316 317 318 319 319 322 325 324 323 323 318 320 321 322 323 323 324 322 322
313 313 312 312 313 313 314 314 314 315 315 314 310 307 309 310 311 307 313 313 313 312 313 316 319 317 320 321 318 318 318 318 320 322 323 323 326 325 324 321 320 322 322 322 324 326 326
314 313 312 312 312 311 314 314 313 315 314 313 306 313 311 310 309 315 316 315 314 315 314 317 318 319 319 320 318 318 318 321 322 325 325 323 324 326 326 326 326 322 322 322 325 326 326
314 313 312 312 312 311 313 313 313 315 314 311 304 316 310 311 317 310 316 314 313 317 318 318 317 317 319 319 322 318 319 325 324 325 327 323 325 327 326 325 324 325 327 327 326 329 327
314 314 313 313 309 309 311 313 313 314 312 305 308 308 309 309 317 316 313 314 314 318 319 322 322 322 321 322 325 323 323 324 324 325 327 327 325 325 326 327 328 331 331 338 334 328 329
313 314 315 311 306 305 310 313 313 313 312 304 309 315 312 309 307 313 313 314 316 316 317 319 321 321 323 324 322 325 324 323 323 324 333 324 326 328 326 327 327 329 331 341 338 334 328
314 314 314 311 305 305 309 313 313 313 312 305 308 312 307 314 312 310 310 311 316 317 316 318 322 322 322 325 324 325 324 324 323 324 325 325 330 326 326 327 328 329 331 339 339 345 342
314 314 314 311 305 303 306 312 313 313 312 307 312 312 308 311 308 309 308 314 313 314 313 321 321 319 321 324 325 325 325 326 326 324 326 326 329 328 329 325 327 330 333 334 337 340 341
315 314 314 311 305 302 306 312 312 312 312 306 303 303 309 309 310 312 313 312 312 311 313 314 316 315 320 322 318 318 319 321 324 326 326 326 327 329 328 326 327 330 343 343 336 338 344
315 314 314 311 305 302 306 311 312 312 312 308 304 305 311 317 311 312 310 310 311 312 311 311 311 314 319 314 320 323 321 321 321 322 322 328 328 328 327 329 329 340 337 334 337 341 342
315 315 314 311 304 304 308 311 312 312 312 309 306 305 309 315 311 312 312 312 310 310 310 311 312 315 312 323 328 329 327 329 329 326 328 324 328 330 329 328 329 341 335 332 334 339 337
315 314 314 310 302 304 306 310 311 312 312 311 308 305 306 311 315 311 311 310 313 312 310 311 311 310 321 326 330 332 331 333 333 332 328 328 329 331 329 329 328 341 333 335 335 338 333
315 314 314 309 302 304 305 310 311 312 313 312 308 305 305 310 309 309 312 312 308 308 310 310 311 311 319 327 328 329 332 328 333 333 334 332 335 334 333 331 338 339 337 336 341 339 337
314 314 313 309 302 304 306 310 310 311 313 312 308 306 304 307 308 306 308 310 309 309 313 311 312 313 315 329 330 329 332 330 331 328 333 333 336 337 336 339 335 334 337 341 339 338 337
313 314 313 307 301 304 306 309 310 311 313 312 308 305 305 305 309 305 307 307 308 309 310 309 310 311 311 327 326 327 333 331 329 329 329 333 331 335 337 339 335 332 335 334 335 337 338

GFSGBSN_925_thetae_093.txt.gz
Theta_e
320 321 320 320 320 320 319 319 319 318 318 319 318 317 317 317 316 316 315 315 315 315 313 312 314 316 317 327 326 328 317 320 328 344 332 335 334 335 335 331 329 329 329 330 330 331 333
321 321 320 319 319 318 318 318 318 317 318 318 317 318 318 317 317 316 315 315 315 314 312 313 315 316 321 322 321 328 333 333 333 336 332 332 332 331 331 331 331 330 330 330 330 329 330
320 320 319 318 318 318 317 317 317 317 317 317 317 318 318 317 316 316 314 314 315 311 313 315 316 317 324 323 323 327 331 331 332 332 330 328 329 330 330 331 331 332 332 331 331 331 330
321 320 320 318 317 317 317 317 315 315 316 316 316 317 317 317 315 315 314 315 312 312 314 316 316 323 325 321 320 320 322 327 325 322 323 325 324 327 329 330 330 331 330 331 331 331 330
320 319 319 318 317 316 315 316 316 315 315 315 316 316 317 315 315 314 315 313 312 314 316 315 326 328 325 319 321 322 322 322 322 323 325 325 325 324 326 328 329 329 328 328 330 332 331
318 318 317 317 317 314 314 315 315 314 313 313 314 315 316 315 314 314 313 313 312 314 319 322 324 326 324 322 322 321 321 322 323 324 327 328 328 327 327 328 329 329 329 329 330 332 332
319 318 317 317 315 315 314 314 315 314 315 315 314 316 315 314 314 315 314 320 322 324 322 321 322 323 322 321 321 322 321 322 323 323 324 326 329 329 328 329 330 330 329 330 329 329 332
319 318 317 317 315 315 315 315 315 315 315 314 314 315 315 315 314 317 317 320 317 317 323 321 321 321 321 320 323 324 322 323 323 323 324 325 326 327 328 327 326 326 328 329 330 330 330
318 317 317 316 315 315 315 315 315 315 315 314 314 315 315 315 316 320 317 316 316 317 322 322 322 322 322 322 323 324 324 325 325 326 326 326 325 326 325 325 326 327 328 328 328 329 330
316 316 316 316 315 315 314 315 315 315 314 315 315 315 314 314 317 320 320 317 316 316 326 324 323 323 322 323 324 323 323 323 324 324 325 325 325 325 325 325 325 325 326 326 327 328 329
314 315 316 316 315 315 314 314 314 315 315 315 315 314 314 313 316 322 320 318 316 317 332 322 323 321 322 322 323 324 323 324 324 324 324 325 324 324 325 325 325 325 325 326 326 327 329
314 315 316 316 315 315 315 315 314 315 315 315 315 314 312 317 319 319 317 316 317 325 329 323 321 322 322 323 323 323 324 325 325 325 326 326 327 326 325 324 324 324 325 326 327 327 328
317 317 317 317 316 316 315 314 312 315 315 315 314 314 311 314 320 315 316 319 326 327 323 324 323 322 322 322 322 322 323 326 326 328 329 327 328 326 325 324 325 324 324 326 328 328 327
318 317 318 318 317 316 314 312 311 315 315 315 314 313 316 315 316 316 318 323 329 325 323 323 323 322 323 322 323 322 323 325 325 326 328 328 328 328 327 327 328 326 325 326 329 328 327
318 317 317 317 317 316 314 310 310 314 315 315 314 319 317 319 317 317 321 326 328 325 322 323 323 324 325 324 321 323 323 324 324 326 328 328 328 327 326 327 327 327 325 325 325 326 325
316 316 316 317 318 316 314 307 309 314 315 314 313 319 319 317 318 319 322 324 323 321 321 323 325 323 325 325 324 324 323 323 323 325 326 327 329 328 327 327 327 330 328 326 325 328 328
316 316 316 317 319 316 311 307 308 314 315 314 316 321 320 317 318 322 324 324 322 322 322 324 325 324 325 326 324 325 324 322 325 325 325 325 327 330 328 327 328 328 330 330 332 333 336
320 317 317 317 319 315 310 306 307 314 315 317 318 323 319 317 323 324 323 323 314 322 323 323 323 324 324 325 326 326 325 325 324 324 325 326 327 329 328 327 328 327 335 335 334 343 340
320 318 316 317 317 315 309 306 307 314 314 313 321 321 319 318 324 325 323 320 320 321 323 325 326 325 325 326 327 326 326 325 324 324 326 326 326 327 327 327 330 332 330 334 334 333 339
319 319 317 315 315 315 309 305 307 313 314 312 320 323 323 322 321 322 323 323 321 321 321 322 325 325 326 327 327 328 327 325 325 325 326 326 326 329 329 329 328 328 329 329 330 332 338
318 318 317 315 315 315 311 305 307 312 314 312 323 323 321 322 324 322 322 321 321 321 322 322 324 325 326 328 327 327 326 327 326 327 326 326 330 330 330 328 327 327 327 326 327 329 339
316 317 317 315 315 315 311 304 305 311 314 317 321 322 322 321 321 321 317 320 320 320 320 321 324 324 326 326 326 327 327 327 325 324 325 327 332 331 331 328 326 327 326 325 326 326 332
313 316 316 316 315 315 312 305 305 311 313 318 319 318 319 319 322 322 321 321 321 320 319 319 320 322 323 322 324 325 323 323 323 324 328 332 333 333 333 329 328 329 327 329 329 333 333
308 314 316 316 315 315 312 305 306 310 313 317 318 318 321 322 322 322 320 319 318 319 319 319 319 320 321 322 322 322 323 324 325 328 330 332 334 333 333 334 338 333 334 332 331 331 335
307 310 315 315 315 315 313 304 307 311 312 314 317 318 321 322 321 321 321 320 319 319 320 319 318 319 319 320 323 326 327 328 334 332 333 330 332 334 337 334 334 334 343 340 338 337 340
305 307 311 315 315 315 312 305 308 310 312 313 317 317 318 321 321 321 321 320 320 320 320 321 320 318 319 320 323 328 328 327 329 332 333 333 335 337 335 339 337 343 340 338 337 338 340
304 305 308 314 315 314 312 305 308 310 311 312 317 317 317 320 320 320 321 320 321 320 320 320 320 320 319 320 323 324 325 330 332 330 335 334 336 341 341 338 336 338 337 338 340 344 341
303 304 306 311 314 314 310 305 306 310 311 312 315 316 316 318 319 318 318 319 319 319 320 322 321 321 320 322 322 323 327 331 334 330 333 331 336 337 337 337 338 335 337 340 343 339 337
302 303 305 309 313 313 310 304 305 310 311 312 314 314 314 316 318 316 317 316 317 317 320 319 322 322 321 322 327 326 326 328 329 332 333 336 331 334 335 338 336 335 339 339 337 336 337

GFSGBSN_925_thetae_096.txt.gz
Theta_e
321 320 319 318 318 318 317 317 317 315 315 316 316 316 317 317 317 315 315 315 314 315 314 312 313 315 318 325 324 325 320 318 319 337 342 337 335 334 334 335 333 331 330 330 330 330 330
321 321 320 319 317 317 317 317 317 317 315 314 315 315 316 316 316 314 315 314 315 315 312 312 315 315 321 322 325 331 334 328 327 335 337 333 334 334 333 332 332 331 331 330 330 330 331
320 320 319 318 317 316 314 315 315 315 315 314 313 314 314 315 314 314 313 314 315 313 312 314 316 316 325 326 324 326 329 332 328 331 333 331 331 331 330 330 330 330 331 332 332 331 331
319 318 317 317 317 315 314 315 314 314 315 315 314 314 315 315 314 313 314 315 313 312 314 315 316 323 328 323 322 322 325 329 330 332 330 328 327 327 326 327 329 329 329 329 330 330 331
318 318 317 317 316 315 315 315 315 315 315 315 314 315 315 314 313 314 315 315 313 313 314 317 322 326 330 321 322 322 322 322 324 326 325 324 325 325 326 325 325 327 329 330 330 330 331
319 319 318 317 316 315 315 315 315 315 315 315 313 314 315 315 314 315 316 317 315 313 321 323 326 328 328 325 323 323 323 323 324 324 324 325 328 327 327 326 326 327 328 329 330 331 331
319 319 318 317 316 315 315 315 315 315 315 314 314 315 315 314 314 317 318 321 324 326 324 325 324 325 324 323 323 324 323 323 323 324 323 326 328 330 329 329 329 329 329 329 329 330 330
319 317 317 317 316 315 315 315 315 314 315 314 315 315 314 314 314 320 320 321 319 319 321 324 323 323 323 323 324 325 324 324 324 324 325 325 325 326 327 328 328 328 328 327 327 328 329
316 315 316 317 317 317 316 315 315 314 315 315 314 314 314 314 316 321 321 319 319 319 322 326 323 323 324 323 324 325 325 325 325 326 327 327 327 328 327 326 326 326 326 326 327 328 329
315 314 315 317 317 317 316 316 315 313 315 315 314 314 314 313 319 321 323 320 319 318 325 326 323 324 323 324 324 325 325 324 324 324 325 326 326 325 325 326 326 325 326 326 325 326 326
316 317 316 317 318 318 318 316 315 312 314 315 315 314 314 313 316 324 321 320 318 320 333 325 325 323 323 323 324 324 325 324 324 325 325 325 325 325 326 325 326 325 325 325 325 326 326
318 318 318 318 319 319 319 316 314 310 314 315 315 314 314 319 320 321 318 319 320 326 331 324 324 324 324 324 324 324 324 325 326 326 328 329 328 328 328 327 326 325 325 325 325 326 329
318 319 319 319 320 321 319 316 312 309 313 315 315 314 314 313 322 318 318 322 327 330 327 326 325 324 324 324 324 323 324 325 327 327 329 329 329 329 327 326 327 328 329 329 329 327 329
317 318 319 319 320 321 318 315 309 308 312 315 315 314 316 316 318 319 320 325 330 330 327 325 324 324 324 325 324 324 323 325 327 326 328 330 329 328 328 328 327 328 328 328 330 326 325
318 317 318 319 320 321 319 314 309 308 312 315 315 319 321 321 320 319 323 327 330 327 325 324 323 325 327 325 324 324 325 325 325 326 328 328 328 326 327 328 328 328 328 329 330 327 328
322 319 317 318 318 320 317 311 308 308 312 315 315 320 322 321 319 321 324 324 326 324 323 323 325 327 326 327 326 326 325 325 324 325 326 326 327 326 327 329 327 327 329 332 332 336 334
320 321 319 317 317 319 319 312 307 307 313 316 319 325 323 321 318 322 325 327 325 324 324 324 326 326 326 326 327 326 326 325 326 326 325 325 327 328 326 327 328 330 333 334 334 333 340
320 320 320 317 316 318 319 312 306 307 314 318 320 326 322 321 321 325 327 325 316 322 324 324 324 324 324 325 326 328 327 326 325 325 325 326 326 327 326 325 327 329 334 333 332 331 333
318 320 320 320 318 318 320 315 307 306 314 315 323 325 323 320 323 326 327 325 323 322 323 324 326 327 326 327 328 328 328 327 325 325 327 326 326 326 326 327 329 329 329 332 334 332 333
316 318 319 320 320 319 319 318 307 306 313 315 322 326 326 325 324 324 324 324 325 323 322 322 323 325 326 327 327 329 329 327 326 326 324 325 327 330 332 331 329 330 328 327 329 331 333
310 314 318 318 319 317 317 317 308 305 312 315 324 327 325 326 324 325 326 324 323 323 323 323 324 325 325 327 328 329 328 328 328 331 326 326 328 328 329 329 328 329 328 327 327 327 330
306 309 315 317 318 317 316 316 308 304 312 317 325 325 324 323 323 324 322 322 322 322 322 322 322 323 325 327 328 326 326 329 328 326 325 324 328 330 332 330 329 329 328 328 327 327 326
305 307 311 315 317 317 316 316 309 304 312 319 323 322 323 322 323 324 325 324 323 323 322 321 320 320 322 324 323 324 324 324 323 323 325 327 330 334 334 331 330 331 339 336 336 333 339
305 306 308 313 316 316 316 315 310 304 311 316 318 321 322 323 324 324 324 324 322 322 321 320 321 321 321 321 321 321 322 322 324 325 326 335 335 335 334 333 337 335 336 334 337 341 341
304 305 306 310 315 315 315 315 310 304 310 313 316 320 321 323 323 323 323 323 323 322 321 321 320 320 319 319 321 323 324 327 328 332 332 334 337 333 335 334 334 338 336 337 337 342 340
303 304 305 308 312 315 315 315 311 305 310 312 314 318 320 322 322 322 323 323 322 321 321 321 322 321 320 320 320 323 326 327 328 334 333 334 338 341 338 339 343 341 333 331 339 344 339
303 303 304 305 308 314 315 315 311 304 309 312 315 320 320 321 321 321 321 323 322 323 323 322 322 322 321 321 321 322 323 324 328 331 334 336 335 340 342 339 335 337 335 336 342 345 338
302 303 303 304 306 312 315 314 309 305 309 312 313 316 317 320 319 319 320 321 320 321 321 320 322 323 322 322 322 323 323 328 332 333 332 337 339 338 340 342 341 336 336 341 340 338 336
302 303 302 303 305 310 314 314 308 305 309 311 313 316 316 317 318 316 316 318 319 319 321 321 323 323 325 324 325 329 330 329 332 330 333 336 335 336 334 335 339 336 338 336 336 338 338

GFSGBSN_925_thetae_102.txt.gz
Theta_e
318 318 317 316 316 316 315 315 315 314 314 314 313 312 313 314 314 314 313 313 314 314 314 313 311 313 317 323 317 318 319 319 319 319 328 331 340 339 335 332 329 329 327 325 324 324 326
319 319 318 317 316 317 316 316 316 315 313 314 313 313 314 313 313 313 313 314 315 316 315 312 312 314 319 318 319 324 319 320 321 327 334 333 339 336 330 329 326 326 323 322 323 324 325
319 319 318 318 317 317 317 318 316 316 314 314 314 313 314 314 313 313 313 315 318 318 313 312 314 317 323 320 322 326 324 329 330 325 331 331 332 324 322 322 323 321 320 320 322 322 323
319 318 317 317 318 318 318 318 317 316 314 313 314 314 314 313 313 313 315 318 320 314 313 314 315 323 317 321 323 326 329 332 331 328 327 328 330 321 320 321 320 321 319 319 320 322 322
319 317 316 317 318 318 319 318 318 316 314 312 314 314 314 313 313 314 319 320 316 314 314 315 319 324 325 327 322 322 322 327 322 329 329 328 326 320 320 322 319 318 320 320 321 323 323
317 316 316 317 318 318 319 319 319 316 315 311 312 314 314 313 313 317 320 321 318 317 320 322 323 323 324 327 322 322 322 321 319 320 320 321 318 318 317 319 322 322 321 320 321 324 324
317 316 317 317 318 319 320 320 320 318 315 311 312 314 314 313 314 320 320 320 311 315 318 324 324 325 324 323 323 322 322 322 321 320 319 319 318 317 318 320 324 323 322 322 323 324 323
318 318 318 319 319 320 321 321 321 320 316 312 312 314 314 313 317 320 320 315 317 317 315 316 317 318 319 321 321 321 323 320 320 319 319 318 318 319 320 322 324 325 324 322 321 322 321
319 319 319 320 320 320 321 322 322 321 317 312 311 313 314 313 320 320 320 318 319 318 313 317 320 320 319 319 320 321 319 320 321 320 320 318 320 323 323 322 321 320 320 320 320 320 319
318 318 319 319 320 320 321 322 323 322 317 314 312 312 314 313 317 317 320 318 319 318 317 323 323 321 321 320 320 322 321 322 321 321 320 320 321 323 323 324 322 321 322 322 321 319 319
318 318 318 318 319 320 321 321 323 322 320 316 314 313 314 314 316 316 319 319 319 317 329 325 321 322 320 319 321 322 323 322 321 321 322 321 323 323 324 325 324 322 322 322 322 321 317
322 321 320 319 318 319 320 321 323 323 322 318 316 315 315 315 314 318 318 319 318 322 329 323 320 320 320 319 320 322 322 321 321 322 322 322 324 324 324 323 324 325 322 321 320 317 321
321 321 321 322 321 319 320 320 322 324 323 319 317 318 317 316 313 316 319 316 322 325 325 322 322 319 320 321 321 321 321 321 319 321 321 323 326 323 323 322 321 322 320 322 323 323 324
319 320 320 321 322 322 321 320 321 323 323 320 319 319 318 318 319 317 318 319 327 329 322 321 321 320 321 321 323 322 321 319 323 322 322 324 325 323 322 323 323 322 322 322 326 325 326
314 316 318 320 321 322 322 321 321 322 323 316 319 319 321 321 321 319 314 320 325 323 322 321 320 322 323 322 322 322 322 321 323 322 323 322 324 322 324 323 322 322 320 321 324 326 327
310 310 315 317 319 321 322 322 320 322 323 316 315 319 321 322 322 319 314 320 321 322 322 321 321 322 323 322 322 322 323 322 323 322 320 322 322 322 325 322 321 320 320 326 324 329 332
303 306 310 313 317 319 321 322 321 321 321 314 318 316 322 322 322 311 315 317 321 322 322 322 321 321 322 323 322 323 324 323 323 323 321 322 321 322 322 321 321 321 320 326 323 324 328
307 306 307 311 314 317 319 320 320 320 316 312 316 318 323 322 316 312 317 321 322 322 319 320 322 323 323 324 324 325 326 325 324 323 325 322 318 321 322 321 323 320 327 324 326 327 324
306 307 306 309 310 314 317 319 318 318 306 311 312 315 323 322 316 314 315 322 322 322 320 320 321 320 320 322 324 325 325 324 324 324 324 322 319 321 322 320 322 325 324 323 322 322 328
305 305 306 305 308 310 315 317 318 317 309 310 313 320 317 314 314 320 319 321 322 323 320 319 320 320 320 322 321 323 324 326 324 324 337 323 319 322 322 322 322 323 324 326 325 322 325
304 305 305 306 306 309 311 315 317 317 312 309 314 321 318 319 319 318 319 320 322 322 320 319 320 321 321 322 321 322 322 323 323 331 321 318 321 322 321 322 323 324 325 332 332 334 337
304 304 305 305 306 309 311 315 317 317 312 313 313 320 317 318 317 320 319 320 323 323 321 322 320 319 317 319 319 319 317 319 321 319 319 316 318 321 321 322 324 327 335 336 337 337 341
303 303 304 304 305 307 310 312 315 316 310 314 318 316 316 318 317 318 319 321 322 320 320 320 318 317 317 319 317 316 314 313 315 317 316 317 316 318 319 321 324 331 336 336 339 337 341
302 303 303 304 304 305 308 310 313 315 313 309 313 314 316 321 319 319 321 321 320 320 321 319 319 318 317 317 315 314 315 314 314 314 312 315 316 320 321 327 336 330 332 334 337 337 338
301 302 302 303 304 304 305 309 313 315 314 307 309 313 314 319 319 321 321 320 319 317 319 319 319 318 314 316 315 315 315 316 318 317 317 314 316 326 335 335 333 337 332 337 336 336 338
301 302 302 302 303 303 305 308 311 315 314 308 306 310 311 315 318 321 321 319 317 316 317 320 318 316 315 313 315 318 317 318 319 319 327 330 327 334 336 337 338 334 335 335 335 339 335
301 301 302 302 303 303 303 306 310 314 313 307 307 313 313 317 317 319 318 317 316 316 316 316 318 317 315 314 317 317 317 316 318 318 322 330 332 335 338 336 335 334 335 335 339 335 334
301 301 301 301 302 303 303 304 308 312 314 307 308 312 311 313 314 316 317 317 315 315 318 316 316 317 318 319 318 317 317 319 327 329 331 332 332 332 331 335 336 334 337 334 330 333 333
301 301 301 301 301 302 302 303 306 311 312 308 309 312 312 312 314 317 317 317 316 315 314 313 315 316 317 318 320 320 322 322 327 328 327 333 332 331 328 328 326 329 334 332 332 332 333

GFSGBSN_925_thetae_105.txt.gz
Theta_e
319 319 318 318 317 317 318 318 317 316 314 312 313 314 314 313 313 313 313 313 314 314 316 316 313 311 318 320 316 318 318 320 322 322 323 327 335 335 339 333 329 328 327 323 324 320 322
319 318 317 317 318 318 318 318 318 316 315 311 312 314 314 314 313 313 313 315 317 318 317 314 311 314 318 314 318 324 319 318 319 323 329 329 338 337 332 326 324 325 322 319 319 321 321
319 317 317 317 318 318 319 319 319 317 317 312 312 313 314 314 313 313 315 318 319 317 313 312 313 318 322 314 320 327 321 323 323 323 330 333 333 329 322 319 321 320 321 318 320 320 322
318 316 316 317 318 318 319 320 320 320 318 313 312 313 314 314 313 315 319 320 317 313 313 314 315 321 314 318 326 322 321 327 331 327 326 326 328 325 318 319 319 321 318 318 320 321 320
317 316 318 318 319 319 321 321 321 322 319 315 312 312 314 314 313 319 321 319 314 314 315 315 322 322 323 326 323 323 325 327 329 329 328 327 325 322 318 319 318 317 319 320 321 322 322
318 318 319 319 320 320 321 322 322 323 320 316 314 312 314 314 314 321 319 319 318 321 320 322 323 322 323 325 324 321 321 324 318 318 319 322 316 319 315 317 320 323 321 320 320 322 322
319 319 319 320 320 321 321 322 323 323 321 318 315 313 314 315 316 320 319 318 311 313 317 320 323 323 322 323 323 321 321 319 319 318 318 317 316 316 316 316 319 322 321 322 323 323 322
318 318 319 319 320 320 321 321 322 323 323 321 318 316 316 317 317 320 318 314 315 316 315 314 315 316 318 319 319 319 321 320 319 318 318 316 317 317 318 318 319 320 322 322 321 321 319
318 318 318 318 319 319 320 321 322 323 324 324 321 317 317 319 316 319 319 318 318 316 312 315 316 317 319 318 319 318 319 319 319 319 318 317 319 320 320 321 321 319 319 319 319 319 318
321 321 321 320 319 319 319 320 321 323 324 324 323 319 318 319 315 314 320 318 319 317 317 324 321 321 319 318 319 319 319 320 319 319 317 317 319 322 323 323 320 322 320 321 322 321 322
321 321 322 322 322 322 321 320 321 323 324 324 324 321 318 317 314 313 319 318 319 316 327 325 321 321 318 319 320 321 320 320 320 321 320 321 322 322 322 322 322 322 322 322 323 321 319
319 319 320 321 321 322 323 322 322 323 324 325 325 323 318 318 315 316 316 319 317 322 326 322 320 319 319 319 319 321 321 320 320 321 320 320 322 322 322 322 322 322 322 319 317 316 321
315 316 317 319 320 322 322 323 323 323 324 325 325 324 319 317 315 317 318 315 321 325 322 321 320 319 318 319 320 319 321 320 318 320 319 321 324 322 321 323 321 319 318 321 323 323 324
310 314 312 313 317 320 322 323 323 323 324 325 325 322 320 321 319 319 318 318 327 326 321 320 320 319 320 318 320 320 319 317 321 320 320 322 323 322 322 323 323 321 319 321 329 327 327
304 304 307 305 311 317 320 322 323 323 324 324 323 320 320 322 321 319 313 319 323 322 321 321 319 320 321 321 321 321 320 322 322 320 321 321 322 321 323 321 320 320 319 318 323 322 324
305 303 303 304 308 312 317 321 322 323 324 322 315 318 319 322 321 316 312 318 319 320 321 320 321 321 322 321 321 320 322 321 323 321 317 320 321 321 323 319 320 321 320 327 322 327 331
306 306 306 304 307 307 315 319 321 322 323 318 316 316 319 321 320 309 314 315 319 321 320 320 320 322 321 322 322 323 323 324 322 322 321 320 319 321 321 321 322 320 323 324 320 322 327
305 306 306 306 306 310 307 315 318 320 322 315 311 317 320 321 315 308 315 318 319 321 318 319 321 322 321 322 323 324 325 324 322 322 323 320 315 320 322 319 320 319 324 321 323 325 322
304 305 305 306 306 308 309 308 315 317 314 309 309 311 321 318 319 314 315 320 321 321 320 318 320 320 319 320 322 323 324 323 322 322 322 320 317 320 321 319 318 323 322 322 319 318 325
303 304 304 305 306 307 309 308 314 317 316 308 311 319 316 312 310 318 319 319 321 321 320 318 318 319 320 321 318 321 322 323 323 326 329 322 316 319 321 321 320 322 321 321 322 321 323
303 303 303 304 305 306 307 309 313 315 317 310 311 318 316 319 319 318 318 318 320 321 319 318 319 317 319 319 318 318 318 318 318 325 319 316 320 318 318 319 320 321 322 325 334 326 334
302 303 303 303 304 304 306 309 311 313 316 312 310 318 314 317 315 317 316 318 321 321 320 320 319 318 316 317 317 317 316 317 317 318 317 313 318 319 319 318 319 323 323 330 335 336 337
302 302 302 303 303 304 305 308 310 312 316 312 315 313 314 317 316 318 318 321 321 318 319 318 317 317 318 316 314 313 312 312 313 314 313 314 314 314 316 317 323 325 327 333 334 336 336
302 302 302 302 303 303 304 305 309 313 315 309 310 311 314 320 317 318 320 320 320 320 319 318 317 317 318 315 314 313 313 311 311 311 310 312 313 315 317 324 331 325 332 333 335 338 336
301 302 302 302 302 303 303 304 308 310 314 313 308 312 315 318 317 320 321 320 317 315 317 318 319 317 310 312 313 313 314 313 314 317 321 310 311 317 322 328 329 334 332 335 335 334 336
301 301 301 301 302 302 303 303 305 309 313 313 311 307 311 315 316 320 321 319 317 316 316 317 317 314 312 310 313 317 317 316 317 316 324 324 316 321 331 335 337 331 334 333 332 335 333
302 301 301 301 301 302 302 303 304 307 312 313 309 309 312 317 317 317 318 317 315 315 315 313 317 316 313 312 315 315 316 315 318 318 321 326 328 331 332 335 335 332 334 333 336 329 332
301 301 301 301 301 301 302 303 303 306 309 312 311 309 308 311 313 314 316 316 315 313 316 314 315 314 315 317 316 316 315 317 325 325 331 329 329 329 329 332 332 332 335 334 327 328 332
301 301 301 301 301 301 301 302 303 305 308 312 309 311 310 309 309 314 314 316 316 315 312 311 313 314 314 315 317 317 321 319 323 326 324 326 326 327 328 330 326 325 330 329 329 331 333

GFSGBSN_925_thetae_108.txt.gz
Theta_e
318 317 317 317 318 318 319 320 320 319 317 313 311 311 312 313 313 313 314 315 316 317 318 318 315 311 317 317 314 317 319 319 323 324 321 322 326 329 338 334 328 327 325 323 321 319 319
318 316 317 317 318 319 320 321 321 322 319 315 312 311 312 313 313 314 317 319 319 319 316 313 311 313 317 313 316 324 319 321 322 321 323 329 335 335 332 325 322 323 321 318 318 319 319
317 316 318 318 319 320 321 321 322 322 320 317 315 314 313 314 314 317 320 319 318 313 312 311 313 318 319 312 319 325 319 319 320 323 329 330 334 329 323 320 319 319 320 318 319 319 320
318 318 319 320 320 320 321 321 322 323 322 321 319 317 316 316 314 320 319 316 314 314 313 314 315 320 312 317 324 323 322 322 328 326 326 326 329 325 320 318 317 318 316 318 319 320 321
319 319 319 320 320 320 321 321 321 323 323 323 322 319 319 318 315 320 318 314 314 315 314 315 322 320 324 325 325 322 324 325 327 328 327 326 323 320 318 318 315 316 320 320 320 321 322
318 318 319 319 319 319 320 320 321 322 323 324 324 322 321 320 317 318 317 318 318 320 320 322 323 321 323 323 323 320 321 325 320 317 317 318 313 319 313 315 317 320 321 320 320 321 320
318 318 318 318 318 319 319 320 321 322 323 323 324 324 322 321 317 318 318 317 310 313 315 316 320 323 321 320 320 319 319 322 317 316 317 316 315 317 317 315 317 320 321 320 320 320 323
320 320 321 321 321 321 321 320 321 322 323 323 324 324 324 322 316 320 318 313 315 315 313 313 313 315 317 318 318 319 319 319 318 317 316 315 317 317 316 316 316 317 319 319 319 319 320
321 321 321 322 322 322 322 322 322 323 323 323 324 324 324 322 315 314 318 317 316 313 312 314 314 316 317 316 318 319 318 318 319 317 317 317 319 318 319 320 320 319 320 319 319 317 318
318 319 320 321 321 321 322 323 323 323 324 324 324 324 325 322 315 314 317 317 317 314 316 321 321 320 316 316 319 318 318 319 319 319 315 317 318 322 321 322 319 322 319 318 320 319 322
315 316 316 317 320 321 320 322 323 324 324 324 324 324 324 319 317 313 316 316 318 314 325 323 320 319 316 318 319 320 318 319 319 319 318 319 322 321 321 322 321 322 321 321 321 319 319
309 311 312 310 311 316 319 322 323 323 324 325 325 325 323 319 316 315 317 318 316 321 325 322 318 317 318 318 318 319 320 318 318 319 318 318 320 321 321 321 321 320 321 318 315 315 320
305 305 307 308 305 307 314 319 322 323 324 325 324 324 322 318 315 317 318 314 320 324 321 320 319 318 317 318 318 318 320 317 318 319 318 320 322 320 320 320 319 318 317 320 323 322 324
306 305 302 302 302 305 306 317 319 321 323 324 324 323 320 320 319 319 316 317 326 324 321 319 318 318 322 319 320 318 317 318 319 317 318 321 322 321 321 321 321 320 317 319 326 326 326
306 307 305 302 301 305 305 311 318 319 322 324 323 322 320 319 320 318 311 318 321 321 319 320 318 319 320 320 320 320 319 321 320 319 320 319 321 320 322 320 319 322 320 316 321 319 323
306 306 306 305 303 304 308 305 317 319 320 324 318 316 318 319 319 314 311 316 319 318 320 319 321 320 321 320 322 321 321 321 322 319 318 319 322 320 321 320 320 319 319 325 320 328 330
305 305 305 305 304 303 307 307 309 317 320 322 314 313 319 319 315 309 314 314 317 318 319 319 320 321 321 322 321 322 323 322 322 321 318 318 318 321 320 320 322 320 320 320 318 320 326
304 304 305 305 305 305 306 307 306 315 320 321 309 317 319 319 315 306 314 316 317 320 317 317 320 320 320 321 322 323 323 323 320 321 322 317 314 320 322 319 318 319 322 318 321 325 321
303 303 304 304 304 305 305 307 309 313 315 309 308 309 319 316 319 315 315 318 319 320 319 317 318 318 318 319 320 321 322 321 322 321 321 318 317 320 321 319 319 322 321 318 316 316 323
303 303 303 303 303 304 305 307 309 312 314 311 309 317 315 310 309 316 318 318 319 319 319 318 317 316 318 318 317 320 319 320 319 325 326 319 314 319 323 322 319 321 320 318 318 321 324
302 302 302 303 303 304 304 305 307 310 313 312 308 315 314 320 318 317 317 317 320 320 319 316 319 316 318 318 317 317 317 315 317 320 317 315 320 317 317 317 319 319 319 319 323 324 331
302 302 302 302 303 303 304 304 307 309 312 311 310 316 313 315 314 317 315 319 320 319 319 319 317 317 316 316 315 315 315 314 316 316 316 311 317 315 318 318 317 319 320 321 321 331 330
302 302 302 302 302 303 303 304 307 310 312 310 312 311 312 316 315 318 317 320 320 318 318 318 317 316 317 316 313 314 311 311 313 315 311 312 313 313 316 315 319 317 320 324 331 334 334
302 302 302 302 302 302 303 303 305 309 311 313 308 309 312 316 316 318 319 320 320 319 319 317 317 316 316 311 313 312 312 311 311 310 308 311 310 311 314 320 323 317 331 332 334 334 335
302 302 301 302 302 302 302 303 303 307 310 311 311 311 314 318 317 319 320 320 318 315 316 317 317 316 310 311 312 313 313 313 314 315 320 307 310 313 316 320 321 331 332 333 333 332 330
301 302 302 301 301 301 302 302 303 304 307 310 312 310 310 313 315 318 320 319 318 316 315 315 314 313 310 309 313 316 318 315 316 316 320 317 311 316 328 331 335 328 332 332 331 335 329
301 301 301 301 301 301 301 302 302 303 306 309 311 309 311 315 312 314 317 317 313 313 314 313 315 315 311 311 314 314 315 314 318 317 319 325 325 325 330 332 331 329 332 332 334 331 329
300 301 301 301 301 301 301 301 302 303 304 308 311 310 310 311 311 313 314 315 314 312 316 313 314 311 313 316 314 314 315 315 322 320 329 327 326 326 326 330 329 331 335 335 327 325 329
300 300 301 301 302 301 301 301 301 302 303 307 310 310 309 309 307 310 311 312 314 315 312 310 313 313 312 314 315 316 320 317 320 325 323 324 322 324 325 325 322 324 328 327 327 328 329

GFSGBSN_925_thetae_111.txt.gz
Theta_e
317 317 319 319 320 321 321 322 323 322 323 322 320 318 317 316 315 315 318 319 319 318 318 318 317 312 317 318 316 318 319 319 324 322 322 322 325 330 337 336 332 331 330 324 325 323 323
318 318 319 320 320 320 321 321 322 323 323 323 323 322 320 318 316 317 319 318 318 316 313 313 312 313 317 317 315 322 320 320 322 323 322 326 328 335 335 331 325 325 324 323 323 324 323
319 319 319 320 320 320 320 320 321 322 323 323 324 324 322 320 316 318 318 315 313 313 312 311 313 318 318 315 319 324 321 320 323 324 325 327 336 333 327 328 321 322 323 324 323 323 324
318 318 319 319 319 319 319 320 321 322 322 323 324 324 324 322 317 318 317 313 314 313 313 314 315 318 318 316 321 324 319 323 323 322 325 327 330 327 325 321 322 323 323 325 325 324 324
318 318 318 319 319 320 320 321 321 322 322 323 324 324 324 323 317 318 317 316 316 315 315 318 322 322 326 324 324 321 323 325 327 326 326 325 324 324 323 324 323 324 324 324 324 324 324
319 320 320 321 322 322 322 322 322 323 323 323 324 324 324 324 317 318 317 318 317 319 319 322 323 324 325 324 322 319 322 323 321 320 321 322 323 327 323 324 324 324 324 324 324 324 324
321 321 321 322 322 322 322 322 323 323 324 324 324 324 324 324 316 319 317 315 318 318 315 317 320 324 323 320 318 319 322 324 319 321 322 319 322 323 323 322 322 321 322 324 325 323 324
318 319 320 321 322 322 321 321 323 323 324 324 324 324 324 324 317 314 318 319 317 316 319 315 315 316 316 317 320 319 319 321 320 321 319 321 323 322 319 319 320 321 324 325 325 322 324
313 316 316 317 317 318 317 318 321 322 323 324 324 324 324 324 317 316 317 317 315 313 318 319 316 318 318 318 320 321 320 320 321 321 321 323 323 321 323 323 324 324 326 325 325 323 322
313 309 308 311 308 305 309 315 318 320 322 323 323 324 324 323 318 316 317 315 316 313 324 323 323 321 318 318 321 319 320 322 321 322 320 322 320 323 324 325 323 326 323 323 323 325 328
305 305 305 308 304 302 303 306 313 315 316 320 321 323 323 320 319 316 314 317 315 314 329 323 321 319 317 320 320 320 318 321 322 321 322 322 324 323 325 325 323 324 323 324 324 326 325
305 303 302 301 301 301 301 303 307 311 314 315 317 322 322 320 317 315 317 317 315 327 327 323 320 320 320 319 320 320 321 321 320 321 321 322 322 324 324 323 323 322 325 324 323 324 327
307 306 305 304 301 301 302 302 302 307 313 312 313 320 321 319 319 318 318 318 326 330 324 323 322 320 320 323 322 320 322 323 323 324 325 325 324 323 323 325 323 324 324 324 326 327 325
306 306 306 306 304 301 303 303 302 305 312 313 312 319 319 318 319 319 315 325 329 325 323 321 320 321 324 322 323 322 321 325 323 323 326 326 327 325 324 324 324 324 324 325 326 326 325
305 305 306 305 305 303 302 302 302 302 308 314 315 320 319 318 319 316 320 323 327 323 322 322 321 324 325 323 323 324 324 324 323 323 326 326 325 322 323 323 323 326 329 322 328 326 330
304 304 305 305 305 305 303 302 302 302 307 317 320 315 317 318 318 313 320 319 323 320 321 320 323 322 325 325 326 326 325 323 323 321 322 325 328 323 323 322 324 326 325 327 328 331 330
304 304 304 304 304 305 305 304 303 308 309 319 314 320 318 318 315 320 322 321 320 320 320 322 322 323 324 325 325 326 325 324 324 323 323 324 326 326 324 326 326 326 326 326 326 329 328
303 303 303 303 304 304 305 305 306 309 313 319 313 318 318 318 323 314 322 319 316 322 320 319 321 322 323 323 325 326 327 326 323 323 325 322 325 328 326 322 321 323 326 325 326 328 329
302 302 303 303 303 304 304 305 306 308 311 312 317 317 318 316 324 323 321 321 320 323 322 322 321 320 320 323 325 325 325 322 323 324 326 324 326 328 328 325 323 325 325 325 325 325 327
302 302 302 302 303 303 304 304 305 307 310 313 315 322 323 319 316 321 323 322 323 321 321 321 320 319 322 323 322 325 323 321 320 324 325 324 325 328 328 327 326 327 324 323 323 323 323
302 302 302 302 302 302 303 304 305 309 310 312 313 320 318 327 324 322 320 321 323 324 321 319 321 319 321 324 323 323 320 320 319 320 321 324 326 325 323 324 323 323 323 322 322 322 326
302 302 302 302 302 302 303 303 304 308 310 312 318 321 319 322 320 320 318 323 322 322 322 321 320 320 319 322 322 322 320 320 322 320 322 319 323 323 323 321 321 321 322 321 321 322 324
302 302 302 302 302 302 302 303 303 307 310 312 310 310 317 320 322 322 322 322 321 321 321 320 320 320 320 319 319 318 319 318 320 320 321 320 322 322 321 320 320 322 322 321 324 331 334
302 302 302 302 302 302 302 302 303 304 308 310 309 311 315 321 321 323 320 322 323 322 322 321 320 319 319 317 315 316 317 317 317 318 316 321 321 320 322 323 324 322 332 333 335 335 336
302 302 302 302 302 302 302 302 302 303 305 309 310 311 315 319 320 321 322 322 322 321 320 320 320 319 316 316 320 323 322 322 319 322 324 317 320 324 325 324 324 324 335 335 333 333 333
301 302 302 301 301 301 301 302 302 302 304 306 310 311 310 316 316 318 321 321 323 323 322 320 318 317 315 318 320 324 324 322 322 321 322 317 318 323 331 330 328 334 334 333 334 337 333
302 301 301 301 301 301 301 301 301 302 303 305 308 309 310 314 314 316 320 321 319 318 321 319 320 320 316 321 322 323 322 320 322 322 323 333 335 332 332 335 334 332 333 334 335 334 331
302 301 300 300 301 301 301 301 301 301 302 304 308 309 310 312 312 313 315 318 318 318 321 320 321 318 320 323 322 322 322 321 322 323 330 330 333 337 337 338 333 331 336 336 334 334 332
303 301 301 300 301 301 301 301 301 301 301 303 306 309 310 309 311 309 311 311 313 315 318 318 319 318 320 321 323 323 325 324 328 328 329 333 329 328 334 330 330 330 332 332 332 333 334

GFSGBSN_925_thetae_114.txt.gz
Theta_e
319 320 320 320 320 320 321 322 322 322 323 323 324 324 324 322 317 318 318 317 317 317 317 317 317 315 319 325 322 324 321 319 328 324 326 326 328 329 332 334 334 333 331 329 328 328 328
319 319 319 319 319 320 321 321 322 322 323 323 324 324 324 323 317 318 317 314 313 313 313 313 313 312 325 321 321 327 326 328 329 325 325 325 327 331 335 333 330 328 328 327 327 327 327
318 318 319 319 320 321 322 322 322 323 323 324 324 324 324 324 316 318 317 314 314 313 312 312 312 320 322 322 326 326 324 325 325 325 325 326 334 337 332 330 327 327 327 327 327 327 328
319 319 320 321 322 322 322 323 323 323 324 324 324 324 324 324 317 318 317 314 316 314 314 314 316 326 322 319 327 325 323 325 325 327 327 331 333 332 329 328 328 327 328 329 328 327 327
321 321 322 322 322 322 322 322 323 324 324 324 324 324 324 324 318 319 317 318 317 315 316 320 328 328 326 322 326 326 324 327 328 329 328 327 330 329 328 329 328 328 328 327 327 327 327
319 319 320 321 322 322 322 319 319 321 323 323 323 324 324 324 319 317 317 318 316 318 321 324 326 330 326 326 324 324 326 326 324 326 328 328 329 330 328 328 329 328 327 327 328 327 327
316 316 317 317 314 313 313 313 316 318 319 321 322 323 323 323 319 315 319 321 326 326 321 323 325 327 326 323 321 323 325 326 323 324 325 325 326 328 327 327 327 327 328 328 328 327 328
313 310 309 307 308 304 302 304 309 313 314 315 318 320 322 322 317 317 320 322 320 320 325 321 320 321 321 321 323 323 324 325 324 326 325 325 328 327 325 326 327 328 328 330 329 327 328
306 306 305 306 304 301 301 302 303 307 310 311 312 317 320 321 317 320 321 318 317 317 326 324 322 322 323 322 324 324 324 325 325 325 325 327 327 326 327 327 329 329 329 329 329 328 329
304 302 301 301 301 301 301 302 302 303 305 307 308 313 318 321 323 319 322 317 319 318 330 325 324 324 322 323 324 324 324 325 325 325 324 326 326 326 328 327 328 330 326 327 327 329 330
307 306 305 303 302 301 301 301 302 302 304 305 306 309 317 321 322 321 319 319 318 318 333 325 324 322 323 324 324 323 323 324 325 325 325 327 326 326 327 327 326 328 326 327 327 328 329
307 307 306 304 303 302 302 302 302 302 303 304 306 309 317 323 320 319 319 320 319 330 332 325 324 323 323 324 323 323 324 324 325 325 325 325 325 326 327 326 326 326 328 329 329 328 330
306 306 306 306 304 302 301 302 302 302 303 304 306 310 319 319 324 320 321 323 330 331 327 325 325 325 325 325 325 324 325 325 326 327 327 327 327 326 326 328 327 328 328 330 330 330 330
305 305 305 306 305 304 302 301 302 302 303 304 306 313 320 320 319 320 322 327 331 329 327 325 325 326 326 326 327 324 325 327 326 326 327 329 330 327 326 327 328 328 328 330 330 329 329
304 304 305 305 305 305 304 302 301 302 303 305 309 318 322 321 320 318 325 327 328 328 326 326 325 327 328 327 327 326 327 327 327 327 329 329 329 326 326 327 327 330 331 327 330 332 332
304 304 304 304 304 304 304 303 301 302 303 308 316 318 323 321 321 320 325 323 327 325 325 325 328 327 329 328 328 328 328 327 327 326 328 330 330 327 326 326 327 329 328 331 331 333 332
303 304 304 304 304 304 304 304 303 303 303 311 318 320 322 321 318 325 324 325 325 324 324 326 327 327 328 328 328 329 329 327 327 327 328 329 330 330 328 330 329 329 330 330 328 330 331
303 303 303 303 303 304 304 304 303 307 305 315 320 318 321 321 325 324 324 325 316 325 324 323 325 326 327 327 329 329 329 329 327 327 329 329 329 331 330 328 326 328 329 329 330 331 330
302 302 302 303 303 303 304 304 304 308 309 310 320 320 321 322 321 323 325 325 325 326 325 325 325 325 325 327 329 328 328 326 326 327 329 329 329 331 331 329 328 328 328 329 329 329 330
302 302 302 302 302 302 303 304 304 307 309 312 322 321 326 325 325 326 325 325 326 324 325 325 325 324 325 326 327 328 328 325 325 326 324 323 328 330 328 329 329 329 327 327 328 329 327
303 303 302 302 302 302 302 303 303 307 309 313 321 323 324 328 327 327 326 325 325 325 325 324 325 324 325 327 327 327 326 324 323 326 325 326 328 327 327 325 324 324 325 324 325 326 326
303 303 302 302 302 302 302 303 303 307 310 316 320 324 323 323 327 328 322 326 325 325 326 326 326 324 324 326 326 327 325 325 325 325 325 325 326 325 326 323 323 323 323 323 322 323 323
302 302 302 302 302 302 302 302 302 304 310 315 316 317 320 319 321 323 324 326 325 325 325 324 325 325 324 324 323 324 323 324 324 325 325 325 323 325 324 322 322 323 323 323 323 324 327
301 302 302 302 302 302 302 302 302 303 306 310 313 316 318 316 319 319 323 323 324 326 327 324 324 325 324 323 322 322 322 323 323 324 323 324 327 326 325 325 326 327 329 331 330 331 334
301 301 302 302 302 302 301 302 302 302 304 308 310 314 316 316 316 319 321 322 323 325 325 325 324 323 323 323 325 325 325 325 324 323 325 324 328 326 328 326 325 324 329 332 334 333 334
303 302 301 302 302 302 301 301 301 302 303 307 309 312 313 316 314 316 319 319 321 321 322 323 323 322 322 324 324 326 326 324 324 324 324 325 329 328 327 329 327 334 336 333 334 335 333
303 303 301 301 301 301 301 302 301 301 302 304 308 311 312 314 314 316 319 322 321 320 320 322 322 323 322 324 323 323 323 323 325 324 329 327 329 328 326 327 326 333 334 333 336 338 333
303 303 302 301 301 301 301 302 301 301 301 303 307 309 311 312 313 313 316 318 320 322 323 323 322 322 323 323 322 323 323 324 324 323 324 325 328 329 330 331 331 333 334 335 335 334 333
303 303 302 301 301 300 301 302 302 300 301 301 306 308 311 311 311 311 311 312 314 316 320 321 322 324 323 323 322 323 323 323 325 324 325 328 327 328 328 331 333 329 329 329 330 333 334

GFSGBSN_925_thetae_117.txt.gz
Theta_e
319 319 319 320 321 322 322 322 323 323 323 324 324 324 324 324 317 317 317 314 313 313 314 316 317 317 320 330 327 328 321 319 320 332 328 328 328 329 331 333 334 333 332 330 329 329 329
319 319 321 322 322 323 323 324 324 324 324 324 324 324 324 323 320 318 317 314 314 313 313 315 316 313 330 327 327 331 327 325 328 327 328 327 327 329 333 334 332 331 329 328 329 329 329
321 321 322 322 323 323 324 323 323 324 324 324 323 323 324 323 322 318 317 314 315 313 312 312 312 322 329 325 329 328 329 330 329 327 328 326 328 333 335 332 331 328 329 329 329 329 330
320 321 322 323 323 323 321 317 317 317 318 319 321 322 323 322 322 318 317 317 316 314 314 315 316 327 326 325 329 327 327 327 327 328 328 328 334 336 333 330 330 330 330 331 330 329 329
317 318 319 319 318 311 308 307 310 312 312 312 315 318 321 321 322 316 317 318 318 317 316 320 329 334 326 323 328 327 326 329 328 329 328 328 329 331 330 330 332 330 332 331 330 329 329
312 310 307 305 305 304 303 302 303 305 308 308 309 313 318 320 321 316 318 317 321 317 324 327 329 333 328 328 325 327 326 328 329 330 329 329 330 330 330 331 332 332 330 330 330 330 329
307 306 305 303 303 302 302 302 302 303 303 305 306 308 314 319 320 317 320 324 329 330 325 328 329 331 328 327 324 325 327 328 326 328 329 329 329 331 331 330 329 329 329 330 330 329 329
302 301 301 301 301 301 302 302 303 303 303 304 305 306 310 317 320 320 322 325 323 323 329 326 325 326 326 325 326 326 326 328 327 328 327 327 329 330 328 328 328 329 330 332 331 330 329
305 304 303 303 303 303 303 303 303 303 303 304 305 306 308 316 321 323 323 321 322 323 329 326 325 327 326 325 327 325 327 327 327 328 327 330 331 328 328 329 330 331 331 332 331 331 330
307 306 305 304 302 302 303 303 303 304 304 305 305 306 307 316 324 323 325 322 324 323 332 327 326 326 325 326 326 327 326 327 327 329 327 329 329 328 329 330 329 332 330 329 329 330 332
308 307 306 305 303 301 301 301 302 302 303 305 306 306 308 319 323 326 322 323 323 324 338 328 326 325 326 326 327 326 326 327 328 327 327 330 328 328 329 330 328 330 329 329 329 331 331
307 307 307 306 305 302 300 301 301 302 302 304 305 306 309 325 326 324 324 324 324 331 334 328 326 325 326 326 326 326 326 326 328 327 327 328 328 328 329 328 328 328 330 331 332 332 333
306 306 306 306 305 304 302 300 301 301 302 303 305 307 314 321 328 324 325 327 333 332 331 328 327 327 327 327 327 326 326 327 327 328 330 329 328 328 328 329 329 330 331 333 334 334 335
305 305 306 305 305 304 303 300 300 301 302 303 305 309 321 322 324 324 326 330 333 332 331 328 328 328 328 328 328 328 328 328 328 329 329 331 332 330 329 329 331 330 331 332 336 332 331
305 305 305 304 304 305 304 302 300 301 302 303 306 318 321 325 324 324 328 330 330 331 329 328 328 328 328 329 329 329 328 329 330 329 330 333 332 330 328 328 329 332 333 331 329 330 331
304 304 304 304 304 304 305 303 300 301 302 308 316 319 320 324 324 325 326 326 329 329 327 328 329 329 330 330 329 329 330 329 329 328 329 331 333 331 329 328 329 331 331 330 333 335 335
303 304 303 304 304 304 304 304 302 303 302 311 320 321 325 323 323 325 326 326 326 327 327 327 328 329 329 331 330 331 331 330 329 329 329 330 333 332 331 331 331 333 332 332 331 330 333
303 303 303 303 303 303 304 304 303 306 304 312 322 321 323 321 326 325 325 325 318 326 326 326 327 328 329 329 330 330 330 331 329 329 330 331 331 334 333 332 330 330 329 330 333 333 333
303 303 303 303 303 303 303 303 303 306 307 309 322 321 319 320 322 324 325 325 324 325 326 327 326 326 328 329 330 330 330 330 328 328 331 331 331 332 332 332 331 331 331 330 331 331 332
304 303 303 303 302 302 302 303 302 305 308 311 323 323 326 324 323 327 327 327 326 325 327 326 327 326 327 328 329 331 329 329 327 327 331 327 328 330 331 332 330 332 331 330 329 331 331
303 304 303 303 302 302 302 302 302 304 306 313 323 324 326 329 326 326 325 326 326 326 325 326 327 326 327 328 328 329 329 329 326 327 325 326 330 330 329 327 327 327 326 325 326 328 329
302 301 303 303 302 302 302 302 302 305 306 318 320 325 326 322 326 329 322 325 325 324 327 327 326 327 326 328 329 329 328 328 328 328 327 328 330 329 327 325 325 325 324 324 324 325 325
303 301 303 303 302 302 302 302 302 304 309 315 317 317 318 318 323 323 323 326 326 326 326 326 327 328 327 327 327 328 327 327 328 329 329 329 330 330 327 324 324 325 325 324 324 324 324
302 301 301 303 302 302 302 302 302 302 305 311 315 316 319 319 318 321 321 323 326 326 327 326 325 326 327 326 326 325 325 325 326 327 327 328 329 329 327 325 327 326 327 327 327 327 329
302 302 301 302 302 302 302 302 301 302 303 308 311 315 319 319 318 319 320 323 323 324 326 326 326 325 326 327 327 327 327 327 326 325 326 326 327 325 328 329 327 325 329 330 331 333 331
303 303 303 301 302 302 302 302 301 301 302 306 311 313 314 317 317 318 319 321 322 322 323 324 324 324 325 326 325 327 327 327 328 328 326 326 327 328 328 329 330 332 336 333 332 330 336
303 303 303 302 301 301 301 302 302 301 301 303 309 312 313 315 315 316 319 322 323 321 320 321 323 324 324 324 324 324 325 325 326 327 330 329 328 328 327 327 326 325 335 332 331 336 335
302 302 303 303 301 301 301 301 302 301 301 303 309 310 312 315 315 315 316 318 318 320 321 325 323 323 324 325 322 322 324 324 325 326 327 329 330 330 330 331 330 334 333 334 336 334 332
302 302 303 303 302 301 301 301 302 302 301 301 307 311 311 312 314 312 313 313 314 315 320 323 325 325 326 323 322 323 322 323 326 327 327 328 327 327 329 336 335 332 332 329 330 332 332

GFSGBSN_925_thetae_123.txt.gz
Theta_e
320 320 320 319 318 313 305 304 306 304 305 306 307 308 309 312 315 319 317 317 314 312 312 313 316 317 316 325 329 326 320 320 318 319 324 332 332 327 326 327 328 332 330 327 326 327 327
311 310 306 305 305 305 303 303 304 303 304 305 305 306 307 308 312 318 315 316 315 312 312 315 316 316 324 332 330 323 321 319 319 324 329 330 328 326 326 327 329 331 328 326 326 328 329
307 305 305 303 303 302 303 303 303 304 304 305 305 306 306 308 310 317 316 317 316 313 312 313 317 323 331 330 331 327 324 322 323 322 329 330 328 325 325 330 334 328 327 326 326 327 329
302 302 302 302 303 303 303 304 304 305 305 306 306 306 307 308 309 314 317 317 317 315 314 313 313 323 332 330 329 328 326 326 326 328 329 328 329 325 327 333 333 327 326 326 327 327 327
304 304 304 304 304 304 304 304 303 304 305 306 306 307 307 307 308 313 318 319 318 317 316 318 323 329 335 327 329 329 330 330 329 328 328 328 328 330 331 330 328 326 327 328 328 329 328
306 305 305 303 302 302 302 302 302 302 303 304 305 306 307 308 309 311 319 322 322 321 325 325 328 330 333 326 328 328 327 328 328 328 328 328 324 324 325 326 328 328 328 329 329 327 328
307 306 306 304 302 300 301 301 301 301 302 303 304 305 307 308 310 310 319 325 325 327 327 330 331 334 334 330 328 328 328 327 328 329 328 328 327 327 327 328 328 327 327 328 330 328 328
307 308 306 306 303 300 300 300 300 301 301 302 303 304 306 309 310 315 322 325 324 324 324 326 329 330 329 327 325 326 328 327 328 325 327 328 327 328 329 329 328 327 327 328 330 329 328
308 307 307 306 304 302 300 300 300 300 301 301 303 303 305 308 311 325 326 325 325 326 325 328 328 328 328 326 326 325 326 327 328 327 327 326 328 330 330 328 329 328 328 330 330 329 329
308 308 307 306 305 303 300 300 300 300 301 301 302 303 304 307 322 322 327 326 326 325 327 332 327 325 326 326 325 327 326 327 327 327 327 327 329 329 328 329 330 328 328 329 330 329 327
307 307 306 306 305 304 302 301 301 301 301 301 302 303 304 304 312 325 328 326 327 325 337 330 326 328 325 325 326 326 327 325 326 326 328 327 329 328 329 330 329 330 327 327 328 326 327
306 306 306 306 305 304 302 301 301 301 301 302 302 303 304 310 314 321 327 327 327 330 336 328 326 325 324 325 326 326 326 325 326 326 327 327 328 328 328 329 329 328 328 328 327 326 328
306 306 305 305 304 304 303 302 301 301 301 302 303 305 305 306 316 319 325 326 332 333 331 329 325 325 324 324 325 326 326 325 324 327 327 327 327 326 328 328 328 327 328 329 331 332 333
304 304 304 304 303 303 303 303 302 302 302 302 304 306 310 311 316 321 324 328 336 335 332 330 327 325 324 325 325 326 326 325 325 325 325 327 331 327 329 329 330 330 329 329 337 335 331
304 304 304 303 303 303 303 303 302 301 302 302 305 308 315 317 325 324 326 332 335 334 329 330 329 328 325 326 326 326 325 326 326 325 326 328 332 329 329 329 328 330 328 329 329 331 329
304 304 304 304 303 303 303 303 303 302 302 303 309 315 321 317 322 325 326 327 327 326 326 330 330 329 328 328 327 328 330 329 329 329 327 330 331 330 330 328 329 328 328 328 327 331 334
304 304 304 304 304 303 303 303 303 302 301 304 314 324 325 322 323 324 326 326 325 325 328 328 329 328 327 329 329 329 329 329 328 329 327 328 329 329 330 330 330 330 328 330 327 328 332
305 304 304 304 303 304 303 303 302 302 302 303 315 326 324 325 325 324 324 324 323 325 327 327 325 326 326 329 331 331 331 332 329 329 329 330 328 333 331 330 330 332 330 330 331 333 328
304 304 304 303 303 303 303 302 302 302 303 305 314 320 322 325 325 321 323 324 324 326 326 325 325 325 324 327 330 332 332 330 329 330 330 330 331 331 330 328 328 332 332 332 331 330 331
304 304 304 303 303 303 303 302 302 302 302 305 315 328 324 322 321 321 321 324 327 325 324 324 327 327 328 328 327 331 331 330 327 327 332 329 329 333 330 330 327 329 330 332 329 329 329
303 303 303 303 302 303 303 302 302 302 302 306 321 329 324 329 328 326 330 325 327 326 325 326 325 325 326 329 330 329 329 329 327 334 327 326 331 331 327 326 325 327 327 325 324 326 328
303 302 303 303 301 302 303 302 302 302 304 311 322 322 321 323 324 324 325 331 328 327 327 328 327 326 327 329 330 332 330 331 330 329 328 325 329 331 330 328 328 329 327 326 323 323 323
303 303 303 302 302 302 303 302 302 302 305 311 315 315 318 323 321 320 323 327 324 324 325 325 327 328 331 329 328 327 325 326 330 329 329 330 330 335 333 332 329 328 327 325 324 324 325
302 302 302 302 302 302 303 302 302 302 301 304 309 312 317 321 320 321 320 320 322 327 328 328 329 328 329 326 327 327 327 326 327 327 324 331 333 331 331 330 332 327 326 326 326 325 327
302 303 302 303 303 303 302 302 302 302 301 302 305 313 317 319 320 321 321 322 322 326 326 326 327 327 325 326 328 330 329 330 329 328 325 323 332 329 331 331 329 329 328 334 335 332 334
302 302 302 303 303 303 302 302 302 302 302 302 304 311 315 317 318 316 317 321 322 323 323 324 323 324 324 325 327 331 331 329 330 327 324 322 328 329 329 330 331 328 329 332 333 334 338
302 302 303 303 302 303 302 301 301 302 302 302 304 308 311 315 315 316 318 319 319 321 326 323 324 325 324 324 325 325 325 325 326 326 325 330 329 330 331 331 329 328 329 331 335 337 336
303 303 303 303 302 303 303 301 301 302 302 302 304 309 310 314 314 314 315 317 317 318 321 319 324 326 326 326 327 326 327 326 325 326 330 331 334 331 331 332 331 336 337 341 340 335 333
302 302 303 303 302 303 303 302 301 301 302 301 305 306 308 312 313 312 311 312 313 315 316 317 320 323 327 328 327 328 331 329 327 327 326 325 329 333 330 330 333 332 335 333 331 332 332